Regional Weather Roundup
Issued by NWS

Home | Current Version | Previous Version | Text Only | Print | Product List | Glossary Off
Versions: 1 2 3 4 5 6 7 8 9 10 11 12 13 14 15 16 17 18 19 20 21 22 23 24 25 26 27 28 29 30 31 32 33 34 35 36 37 38 39 40 41 42 43 44 45 46 47 48 49 50

000
ASUS45 KSLC 232110
RWRUT

UTAH REGIONAL WEATHER ROUNDUP
NATIONAL WEATHER SERVICE SALT LAKE CITY UT
200 PM MST THU NOV 23 2017

UTZ001>011-023>025-232200-

NORTHERN UTAH

CITY           SKY/WX    TMP DP  RH WIND       PRES   REMARKS
BRIGHAM CITY     N/A     58  41  52 W3        30.19S
HILL AFB         N/A     61  39  45 S9        30.18F
LOGAN            N/A     60  43  53 NW12      30.16F
OGDEN            N/A     62  41  46 S7        30.17F
SALT LAKE CITY PTSUNNY   62  44  51 NW5       30.17F
TOOELE VALLEY    N/A     54  45  71 CALM      30.19F
WENDOVER         N/A     53  41  63 SE5       30.17F
HEBER CITY       N/A     59  37  44 CALM      30.20F
WEST JORDAN      N/A     63  41  44 S14G22    30.18F

$$

UTZ011>015-024>027-232200-

CENTRAL/NORTHEAST UTAH

CITY           SKY/WX    TMP DP  RH WIND       PRES   REMARKS
PROVO AIRPORT  PTSUNNY   59  41  51 NW6       30.20F
MOAB/CANYONLAN   N/A     62  33  33 N5        30.23F
DELTA            N/A     61  34  36 CALM      30.21F
PRICE            N/A     57  31  37 SE7       30.27F
RICHFIELD      SUNNY     64  34  32 NE6       30.23F
ROOSEVELT      CLOUDY    55  32  41 CALM      30.24F
VERNAL         CLOUDY    56  34  43 CALM      30.22F

$$

UTZ013>016-019>022-027-232200-

SOUTHERN UTAH

CITY           SKY/WX    TMP DP  RH WIND       PRES   REMARKS
BRYCE CANYON     N/A     67  14  13 VRB3      30.34F
CEDAR CITY       N/A     71  32  23 CALM      30.24F
MILFORD          N/A     69  34  27 S17       30.20F
ST GEORGE        N/A     65  34  31 CALM      30.16F
HANKSVILLE       N/A     59  25  27 CALM      30.25F
KANAB          SUNNY     70  32  24 S2        30.25F
BLANDING         N/A     61  32  32 S6        30.34F

$$

REGIONAL REPORTS     COLORADO/ARIZONA

CITY           SKY/WX    TMP DP  RH WIND       PRES   REMARKS
CRAIG, CO      CLOUDY    58  37  45 CALM      30.21F
GRAND JUNCTION CLOUDY    60  36  40 CALM      30.25F
RIFLE, CO      CLOUDY    56  37  49 CALM      30.26F
MONTROSE, CO   CLOUDY    60  34  37 CALM      30.28F
CORTEZ, CO     CLOUDY    60  31  33 SW9       30.27F
COLORADO CITY    N/A     70  32  24 CALM      30.24F
PAGE, AZ         N/A     61  32  33 N3        30.22F
GRAND CANYON     N/A     71  19  14 SW10      30.30F
KINGMAN, AZ      N/A     81  32  17 CALM      30.13F
FLAGSTAFF, AZ    N/A     70  19  14 SW7       30.31F

$$

REGIONAL REPORTS    NEVADA/IDAHO/WYOMING

CITY           SKY/WX    TMP DP  RH WIND       PRES   REMARKS
LAS VEGAS, NV  PTSUNNY   78  38  23 NE3       30.09F
ELY, NY          N/A     66  29  24 S6        30.25F
ELKO, NV         N/A     66  40  38 CALM      30.17F
POCATELLO, ID  MOSUNNY   64  40  41 SW16      30.09F
BURLEY, ID       N/A     65  42  43 SW20G28   30.07F
FORT BRIDGER,    N/A     60  34  37 W20G30    30.26F
EVANSTON, WY   SUNNY     59  35  40 W15G26    30.24F
ROCK SPRINGS,  CLOUDY    56  33  42 W26G37    30.18F
KEMMERER, WY   SUNNY     55  36  47 SW23      30.21F

$$



USA.gov is the U.S. government's official web portal to all federal, state and local government web resources and services.